Погода в Полтаве

Поиск расширенной информации на нашем сайте:

Полезная информация:

Новости сайта



02.01.2020
Опубликован Долгосрочный прогноз погоды по городам России и ближнего зарубежья на январь 2020 года.
Карты: Прогноз на январь и февраль 2020 года, Сравнение прогнозируемой аномалии приземной температуры воздуха на январь 2020 года по разным моделям.




Погода в Полтаве - сегодня

Время (UTC), дата Ветер
(°,м/с) 
Видим.   Явления Облачность Т
(°С)
Тd
(°С)
f(%) Тe
(°С)
Pmin
(гПа)
dP
(гПа)
Po
(мм)
O2
(г/м3)
Тmin Tmax R s Состояние
почвы
21 22.10.20 230 (ЮЗ) 10 км  в посл. час дождь  9/4 600 м средняя 
[Sc|Ac trans]
+12.4 +6 65 +13  1018.7  -0.4  750  288           
00 23.10.20 250 (З) 10 км  {дождь}  9/6 600 м верхняя 
[Sc|Ci fib]
+13.8 +5.3 56 +14  1018  -0.6  749  287      0.0     
03 23.10.20 230 (ЮЗ) 10 км    9/0 верхняя 
[Ci fib]
+12.9 +6.6 66 +13  1018.2  0.1  749  287           
06 23.10.20 230 (ЮЗ) 10 км    9/5 600 м верхняя 
[Sc|Cc]
+12 +7.5 74 +13  1018.3  0.1  749  288  +11.3  +1.1  0.0     
09 23.10.20 160 (Ю) 10 км    8/0 средняя, верхняя 
[Ac trans|Ci fib]
+16.6 +8.6 59 +17  1017.5  -0.5  749  283           
12 23.10.20 210 (ЮЗ) 10 км    8/0 средняя, верхняя 
[Ac trans|Ci fib]
+20 +7.6 45 +20  1015.5  -1.8  748  279           
15 23.10.20 200 (Ю) 10 км    9/4 600 м средняя, верхняя 
[Sc|Ac trans|Ci fib]
+17.1 +5.3 46 +19  1014.8  -0.8  747  282           
18 23.10.20 200 (Ю) 10 км    9/0 средняя, верхняя 
[Ac trans|Ci fib]
+15 +6.1 55 +16  1014.4  -0.6  747  284    +20.9       
21 23.10.20 230 (ЮЗ) 10 км    9/0 средняя, верхняя 
[Ac trans|Ci fib]
+14.2 +6.8 61 +15  1014  -0.4  746  285           
00 24.10.20 230 (ЮЗ) 10 км    9/0 средняя, верхняя 
[Ac trans|Ci fib]
+13.3 +7.1 66 +15  1013.5  -0.6  746  285           
03 24.10.20 230 (ЮЗ) 10 км    9/4 600 м средняя 
[Sc|Ac trans]
+12 +7.9 76 +13  1013.4  -0.1  746  286           
06 24.10.20 230 (ЮЗ) 10 км    10/0 средняя 
[Ac As]
+12.2 +8.6 79 +13  1014.3  0.9  746  286  +11.6         
09 24.10.20 тихо ()   10 км  в посл. час ливневой дождь  10/6 1000 м кучево-дожд., средняя 
[Cb calv|Ac und]
+14.6 +10 74 +16  1013.8  -0.4  746  284           
12 24.10.20 170 (Ю) 10 км  {ливн. осадки}  10/0 средняя 
[Ac und]
+16.5 +9.4 63 +19  1013  -0.6  746  282           
15 24.10.20 тихо ()   10 км    9/0 средняя, верхняя 
[Ac trans|Ci fib]
+15 +10.2 73 +17  1012.5  -0.6  745  283           
18 24.10.20 210 (ЮЗ) 10 км    8/0 средняя, верхняя 
[Ac trans|Ci fib]
+12.7 +9.8 82 +15  1012.7  745  285      0.0     
21 24.10.20 220 (ЮЗ) 10 км    ясно 
+12.4 +8.2 76 +13  1012.8  0.1  745  286           
00 25.10.20 240 (ЮЗ) 10 км    3/0 верхняя 
[Ci fib]
+11.3 +8.7 84 +12  1013.2  0.3  746  287           
03 25.10.20 250 (З) 4000 м  дымка  ясно 
+10 +8.8 92 +10  1014.6  1.3  746  289           
06 25.10.20 280 (З) 4000 м  дымка  9/0 верхняя 
[Ci fib]
+9.9 +9.1 95 +10  1016.4  1.8  748  289  +9.2  +0.9       
09 25.10.20 320 (СЗ) 10 км    9/4 1000 м верхняя 
[Cu hum|Ci fib]
+13.8 +8.2 69 +14  1017.7  1.5  749  286           
12 25.10.20 320 (СЗ) 10 км    9/0 верхняя 
[Ci fib]
+15 +5.8 54 +15  1018  0.4  749  285           
15 25.10.20 350 (С) 10 км    9/0 верхняя 
[Ci fib]
+13.2 +6 62 +14  1019.2  750  287           
18 25.10.20 тихо ()   10 км    6/0 верхняя 
[Ci fib]
+9.1 +6 81 +9  1020.7  1.2  751  292           
21 25.10.20 070 (В) 10 км    6/0 верхняя 
[Ci fib]
+8.4 +5.7 83 +9  1021.4  0.7  751  293           
Время (UTC), дата Ветер
(°,м/с) 
Видим.   Явления Облачность Т
(°С)
Тd
(°С)
f(%) Тe
(°С)
Pmin
(гПа)
dP
(гПа)
Po
(мм)
O2
(г/м3)
Тmin Tmax R s Состояние
почвы

Для получения пояснительной информации подведите курсор к названию столбца.

ПОГОДА в Полтаве - архив

Всё, что Вы хотите узнать о погоде в Полтаве - удобно и подробно!

Выберите нужную дату (начиная с 1 января 2019* года) и нажмите кнопку "Найти".
Будут отображены архивные сводки погоды по пункту Полтава, начиная с указанной даты.


Отображать данные в формате CSV (для использования в таблицах Excel)


Внимание! Наш архив погоды предназначен исключительно для личного некоммерческого использования в познавательных целях. Если Вам необходимы официальные справки о состоянии погоды (для производственных, юридических, коммерческих и т.п. целей), обращайтесь в органы Росгидромета.

*Примечание: данная дата относится к архиву по метеостанциям СССР (Россия, СНГ, Балтия).
Архив по метеостанциям Зарубежной Европы и Азии (кроме Китая) хранится 10 дней, по другим регионам земного шара (Китай, Африка, Америка, Австралия, Океания) - 1 день.

Полтава - район местоположения метеостанции


Название, широта, долгота, высота метеостанции:
Полтава 49.6°ш. 34.6°д. 160 м над ур. моря [Украина]

Дополнительная информация

В oтличие oт бoльшинства пoгoдных сайтoв мы публикуем пoдрoбную метеoинфoрмацию в детальнoм прoфессиoнальнoм фoрмате.

Характеристики температуры и влажнoсти вoздуха измеряются на высoте 2 м в тени вдали oт зданий и деревьев.
Скoрoсть ветра измеряется на высoте 10 м (на урoвне рoста челoвека скoрoсть ветра ниже в 1.5-2 раза). Если метеoстанция нахoдится в гoрoде или в лесу, тo скoрoсть ветра занижена на 2-4 м/с пo сравнению с oткрытым местoм. Скoрoсть ветра над акватoриями крупных рек и oзёр, а также на вершинах хoлмoв на 2-5 м/с выше, чем в oбычных услoвиях.
Атмoсфернoе давление в разных тoчках местнoсти мoжет значительнo oтличаться oт давления на метеoстанции, в зависимoсти oт услoвий рельефа (при пoдъёме на 10 м давление пoнижается примернo на 1 мм рт.ст.).